This is the latest recevied weather packets stored in our database for station/object 9W2KHE-10. If no packets are shown the sender has not sent any weather packets the latest 10 day(s).
| Time | Temp. | Humidity | Pressure | Rain* | Wind** | Luminosity | Snow |
|---|---|---|---|---|---|---|---|
| 1778061745 | 32.78° C | 55% | 1007.9 hPa | - | - | - | - |
| 1778060845 | 32.78° C | 55% | 1007.8 hPa | - | - | - | - |
| 1778059945 | 32.78° C | 55% | 1007.5 hPa | - | - | - | - |
| 1778059045 | 32.78° C | 55% | 1007.3 hPa | - | - | - | - |
| 1778058145 | 33.33° C | 54% | 1007.7 hPa | - | - | - | - |
| 1778057244 | 33.33° C | 54% | 1007.3 hPa | - | - | - | - |
| 1778056343 | 33.33° C | 54% | 1007.2 hPa | - | - | - | - |
| 1778055443 | 33.33° C | 55% | 1007.3 hPa | - | - | - | - |
| 1778054545 | 33.33° C | 54% | 1007.4 hPa | - | - | - | - |
| 1778053645 | 32.78° C | 55% | 1007.6 hPa | - | - | - | - |
| 1778052745 | 32.78° C | 57% | 1007.6 hPa | - | - | - | - |
| 1778051845 | 32.22° C | 57% | 1007.7 hPa | - | - | - | - |
| 1778050945 | 32.22° C | 59% | 1007.9 hPa | - | - | - | - |
| 1778050045 | 31.67° C | 59% | 1008.1 hPa | - | - | - | - |
| 1778049145 | 31.67° C | 59% | 1008.5 hPa | - | - | - | - |
| 1778048245 | 31.11° C | 60% | 1008.8 hPa | - | - | - | - |
| 1778047344 | 31.11° C | 61% | 1009.2 hPa | - | - | - | - |
| 1778046444 | 30.56° C | 61% | 1009.6 hPa | - | - | - | - |
| 1778045544 | 30.56° C | 61% | 1009.8 hPa | - | - | - | - |
| 1778044644 | 30.56° C | 62% | 1010.1 hPa | - | - | - | - |
| 1778043744 | 30° C | 63% | 1010.6 hPa | - | - | - | - |
| 1778042844 | 29.44° C | 63% | 1010.8 hPa | - | - | - | - |
| 1778041944 | 29.44° C | 63% | 1011.1 hPa | - | - | - | - |
| 1778041044 | 30.56° C | 61% | 1011.3 hPa | - | - | - | - |
| 1778040144 | 31.11° C | 63% | 1011.3 hPa | - | - | - | - |
* Rain since midnight (hover to see other rain measurements)
** Current wind speed in m/s (hover to see current wind gust speed)